Regional Weather Roundup
Issued by NWS Jackson, KY

Home | Current Version | Previous Version | Graphics & Text | Print | Product List | Glossary On
Versions: 1 2 3 4 5 6 7 8 9 10 11 12 13 14 15 16 17 18 19 20 21 22 23 24 25 26 27 28 29 30 31 32 33 34 35 36 37 38 39 40 41 42 43 44 45 46 47 48 49 50
000
ASUS43 KJKL 260510
RWRJKL

EAST KENTUCKY HOURLY WEATHER ROUNDUP
NATIONAL WEATHER SERVICE JACKSON KY
100 AM EDT TUE MAY 26 2015

NOTE: "FAIR" INDICATES FEW OR NO CLOUDS BELOW 12,000 FEET WITH
NO SIGNIFICANT WEATHER AND/OR OBSTRUCTIONS TO VISIBILITY.

* THESE REPORTS ARE NOT UNDER NWS QUALITY CONTROL AND MAY NOT
  REPORT WEATHER SUCH AS PRECIPITATION AND FOG.

KYZ079-080-083-085-087-088-110-112-115-119-120-260600
...EASTERN KENTUCKY...

CITY           SKY/WX    TMP DP  RH WIND       PRES   REMARKS
JACKSON        CLOUDY    71  63  75 CALM      30.19R
LONDON         LGT RAIN  71  62  73 W6        30.19R
SOMERSET*      PTCLDY    68  63  83 CALM      30.18S
MONTICELLO*    MOCLDY    69  65  87 SE3       30.19F
MIDDLESBORO*   CLOUDY    71  64  77 S7        30.20S
HARLAN APT*    MOCLDY    72  59  64 CALM      30.21R
HAZARD APT*    CLEAR     68  61  77 CALM      30.19R
BLACK MTN*       N/A     63  57  82 S3          N/A
PIKEVILLE APT* CLEAR     72  63  73 SE3       30.19R
BIG SANDY*       N/A     70  65  83 CALM      30.18R
MOREHEAD APT*  PTCLDY    70  66  88 SW6       30.18S
$$

KYZ035-036-041-042-044-050-067-078-099-260600
...CENTRAL KENTUCKY...

CITY           SKY/WX    TMP DP  RH WIND       PRES   REMARKS
MT STERLING*   MOCLDY    68  64  88 SW6       30.18S
FLEMING/MASON* CLEAR     64  64 100 S5        30.16F
DANVILLE*      MOCLDY    68  63  83 S5        30.18R
RICHMOND*      PTCLDY    68  63  83 S5        30.17R
LEXINGTON      CLEAR     65  64  97 S7        30.15S
FRANKFORT      CLEAR     67  63  87 S6        30.13S
$$

KYZ091>093-OHZ055-061-077-WVZ005-015-034-035-042-260600
...SOUTHERN OHIO/WEST VIRGINIA...

CITY           SKY/WX    TMP DP  RH WIND       PRES   REMARKS
COVINGTON      MOCLDY    68  63  84 S6        30.12F
COLUMBUS       CLOUDY    72  61  68 S6        30.12R
DAYTON         MOCLDY    70  64  81 S8        30.11F
WILMINGTON     PTCLDY    65  62  90 SW7       30.13S
HUNTINGTON     MOCLDY    68  65  90 CALM      30.14R
CHARLESTON     PTCLDY    68  64  87 CALM      30.15R
PINEVILLE*     PTCLDY    63  60  93 MISG      30.27R
BECKLEY        MOCLDY    67  54  63 S8        30.26R
BLUEFIELD      CLOUDY    69  55  60 S10G17    30.28F
$$

VAZ002-007-008-TNZ017-027-036-066-071-260600
...SOUTHWEST VIRGINIA/EAST TENNESSEE...

CITY           SKY/WX    TMP DP  RH WIND       PRES   REMARKS
WISE*          MOCLDY    70  55  60 S10G17    30.27R
JONESVILLE*    MOCLDY    70  64  83 CALM      30.23R
ABINGDON*      CLOUDY    69  58  69 CALM      30.25S
BRISTOL        CLOUDY    73  59  61 S6        30.23R
KNOXVILLE      CLOUDY    68  62  81 W6        30.19R
OAK RIDGE      CLOUDY    69  66  90 VRB3      30.21S
CROSSVILLE     CLOUDY    66  62  87 VRB3      30.22S
NASHVILLE      MOCLDY    67  65  93 SE6       30.12S
$$

...KEY TO REMARKS...
VSB - VISIBILITY IN MILES
WCI - WIND CHILL INDEX
HX  - HEAT INDEX

$$



USA.gov is the U.S. government's official web portal to all federal, state and local government web resources and services.